TimeCST,TemperatureF,Dew PointF,Humidity,Sea Level PressureIn,VisibilityMPH,Wind Direction,Wind SpeedMPH,Gust SpeedMPH,PrecipitationIn,Events,Conditions,WindDirDegrees,DateUTC
12:54 AM,19.9,17.1,89,30.05,4.0,Calm,Calm,-,N/A,,Clear,0,2013-01-08 06:54:00
1:09 AM,19.4,17.6,93,30.02,2.0,Calm,Calm,-,N/A,,Clear,0,2013-01-08 07:09:00
1:39 AM,19.4,17.6,93,30.01,5.0,Calm,Calm,-,N/A,,Clear,0,2013-01-08 07:39:00
1:54 AM,19.0,15.1,85,30.05,5.0,Calm,Calm,-,N/A,,Clear,0,2013-01-08 07:54:00
2:54 AM,19.9,19.0,96,30.04,7.0,SSE,5.8,-,N/A,,Clear,160,2013-01-08 08:54:00
3:54 AM,16.0,14.0,92,30.03,4.0,SE,3.5,-,N/A,,Clear,140,2013-01-08 09:54:00
4:54 AM,17.1,15.1,92,30.02,6.0,East,5.8,-,N/A,,Clear,80,2013-01-08 10:54:00
5:54 AM,16.0,12.9,88,30.03,6.0,East,4.6,-,N/A,,Clear,100,2013-01-08 11:54:00
6:54 AM,19.9,18.0,92,30.03,7.0,SE,6.9,-,N/A,,Clear,130,2013-01-08 12:54:00
7:54 AM,19.9,18.0,92,30.03,6.0,SSE,5.8,-,N/A,,Clear,150,2013-01-08 13:54:00
8:54 AM,24.1,21.0,88,30.03,8.0,SSE,8.1,-,N/A,,Clear,150,2013-01-08 14:54:00
9:54 AM,28.9,24.1,82,30.02,10.0,SSE,9.2,-,N/A,,Clear,160,2013-01-08 15:54:00
10:54 AM,33.1,26.1,75,30.00,10.0,South,11.5,-,N/A,,Clear,170,2013-01-08 16:54:00
11:54 AM,34.0,28.0,79,29.97,10.0,South,13.8,-,N/A,,Clear,170,2013-01-08 17:54:00
12:54 PM,36.0,28.0,73,29.94,10.0,South,16.1,-,N/A,,Clear,170,2013-01-08 18:54:00
1:54 PM,37.0,28.9,73,29.91,10.0,South,17.3,-,N/A,,Clear,170,2013-01-08 19:54:00
2:54 PM,37.0,30.0,76,29.89,10.0,SSE,16.1,-,N/A,,Clear,160,2013-01-08 20:54:00
3:54 PM,37.9,30.0,73,29.90,10.0,SSE,12.7,23.0,N/A,,Scattered Clouds,160,2013-01-08 21:54:00
4:54 PM,37.0,30.0,76,29.92,10.0,South,10.4,-,N/A,,Clear,170,2013-01-08 22:54:00
5:54 PM,36.0,30.0,79,29.93,10.0,South,6.9,-,N/A,,Clear,180,2013-01-08 23:54:00
6:54 PM,34.0,30.0,85,29.94,10.0,South,8.1,-,N/A,,Clear,170,2013-01-09 00:54:00
7:54 PM,36.0,28.9,76,29.94,10.0,SSW,12.7,-,N/A,,Partly Cloudy,200,2013-01-09 01:54:00
8:54 PM,37.0,30.0,76,29.98,10.0,WSW,13.8,-,N/A,,Partly Cloudy,240,2013-01-09 02:54:00
9:54 PM,35.6,28.4,75,29.96,10.0,West,9.2,-,N/A,,Clear,270,2013-01-09 03:54:00
10:54 PM,33.8,28.4,81,29.99,10.0,West,10.4,-,N/A,,Clear,260,2013-01-09 04:54:00
11:54 PM,32.0,27.0,82,30.04,10.0,West,10.4,-,N/A,,Clear,260,2013-01-09 05:54:00